Stornoway, United Kingdom

6:34 AM GMT on November 23, 2017 (GMT +0000)
Stornoway

Weather History for EGPO - January, 2013

Change the Weather History Date:

Friday, January 25, 2013

  Actual Average Record
Temperature  
Mean Temperature 40 °F -  
Max Temperature 43 °F 44 °F 54 °F (2016)
Min Temperature 37 °F 35 °F 30 °F (2006)
Degree Days  
Heating Degree Days 25    
Moisture  
Dew Point 37 °F    
Average Humidity 84    
Maximum Humidity 89    
Minimum Humidity 79    
Precipitation  
Precipitation 0.04 in 0.12 in - ()
Sea Level Pressure  
Sea Level Pressure 29.48 in    
Wind  
Wind Speed 20 mph ()    
Max Wind Speed 32 mph    
Max Gust Speed 41 mph    
Visibility 6.5 miles    
Events Rain    
Averages and records for this station are not official NWS values.
T = Trace of Precipitation, MM = Missing Value Source: Averaged Metar Reports

Daily Weather History Graph

Daily Weather History Graph

Search for Another Location

Airport or City:

Trip Planner

Search our weather history database for the weather conditions in past years. The results will help you decide how hot, cold, wet, or windy it might be!

Date:

Astronomy

Jan. 25, 2013 Rise Set
Actual Time 8:43 AM GMT 4:32 PM GMT
Civil Twilight 7:57 AM GMT 5:18 PM GMT
Nautical Twilight 7:08 AM GMT 6:07 PM GMT
Astronomical Twilight 6:22 AM GMT 6:54 PM GMT
Moon 3:14 PM GMT (1/25) 7:18 AM GMT (1/25)
Length of Visible Light 9h 20m
Length of Day
7h 48m
Waxing Gibbous, 97% of the Moon is Illuminated
Jan 25
Waxing Gibbous
Jan 27
Full
Feb 3
Last Quarter
Feb 10
New
Feb 17
First Quarter

Hourly Weather History & Observations

Time (GMT) Temp. Windchill Dew Point Humidity Pressure Visibility Wind Dir Wind Speed Gust Speed Precip Events Conditions
12:20 AM 41.0 °F 29.5 °F 35.6 °F 81% 29.71 in 6.2 mi South 32.2 mph - N/A   Light Drizzle
12:50 AM 41.0 °F 30.2 °F 35.6 °F 81% 29.68 in 6.2 mi South 27.6 mph - N/A   Light Drizzle
1:20 AM 41.0 °F 30.0 °F 37.4 °F 87% 29.65 in 6.2 mi South 28.8 mph - N/A   Light Drizzle
1:50 AM 42.8 °F 32.9 °F 37.4 °F 81% 29.65 in 5.6 mi South 26.5 mph - N/A Rain Light Rain
2:20 AM 42.8 °F 32.3 °F 37.4 °F 81% 29.65 in 5.0 mi South 29.9 mph 41.4 mph N/A Rain Light Rain
2:50 AM 43 °F - 40 °F 86% 29.64 in 6 mi South 25.3 mph - - Rain Light Drizzle
2:50 AM 42.8 °F 32.7 °F 37.4 °F 81% 29.62 in 5.6 mi South 27.6 mph - N/A Rain Light Rain
3:20 AM 42.8 °F 32.3 °F 37.4 °F 81% 29.62 in 6.2 mi SSW 29.9 mph 41.4 mph N/A   Drizzle
3:50 AM 42.8 °F 32.5 °F 37.4 °F 81% 29.62 in 6.2 mi South 28.8 mph 40.3 mph N/A Rain Light Rain
4:20 AM 41.0 °F 29.5 °F 37.4 °F 87% 29.59 in 5.6 mi SSW 32.2 mph - N/A Rain Light Rain
4:50 AM 41.0 °F 29.8 °F 37.4 °F 87% 29.62 in 6.2 mi SSW 29.9 mph - N/A Rain Light Rain
5:20 AM 41.0 °F 30.7 °F 37.4 °F 87% 29.62 in 6.2 mi SSW 25.3 mph - N/A Rain Light Rain
5:50 AM 41 °F - 38 °F 87% 29.63 in 3 mi SSW 23.0 mph - - Rain Rain
5:50 AM 41.0 °F 32.2 °F 35.6 °F 81% 29.62 in 6.2 mi SSW 18.4 mph - N/A Rain Light Rain
6:20 AM 41.0 °F 34.7 °F 35.6 °F 81% 29.62 in 6.2 mi SW 10.4 mph - N/A Rain Light Rain
6:50 AM 39.2 °F 33.0 °F 33.8 °F 81% 29.62 in 6.2 mi SSW 9.2 mph - N/A Rain Light Rain
7:20 AM 37.4 °F 30.8 °F 33.8 °F 87% 29.62 in 6.2 mi SW 9.2 mph - N/A   Scattered Clouds
7:50 AM 39.2 °F 32.0 °F 35.6 °F 87% 29.62 in 6.2 mi SSW 11.5 mph - N/A   Scattered Clouds
8:20 AM 39.2 °F 31.6 °F 33.8 °F 81% 29.62 in 6.2 mi SSW 12.7 mph - N/A   Scattered Clouds
8:50 AM 41 °F - 39 °F 88% 29.60 in 28 mi South 11.5 mph - -   Scattered Clouds
8:50 AM 39.2 °F 32.5 °F 35.6 °F 87% 29.59 in 6.2 mi South 10.4 mph - N/A   Partly Cloudy
9:20 AM 41.0 °F 33.9 °F 37.4 °F 87% 29.59 in 6.2 mi South 12.7 mph - N/A   Scattered Clouds
9:50 AM 41.0 °F 33.5 °F 37.4 °F 87% 29.59 in 6.2 mi SSW 13.8 mph - N/A   Scattered Clouds
10:20 AM 41.0 °F 34.3 °F 37.4 °F 87% 29.59 in 6.2 mi SSW 11.5 mph - N/A   Overcast
10:50 AM 42.8 °F 34.8 °F 37.4 °F 81% 29.56 in 6.2 mi South 17.3 mph - N/A Rain Light Rain
11:20 AM 42.8 °F 33.8 °F 37.4 °F 81% 29.56 in 6.2 mi South 21.9 mph - N/A   Mostly Cloudy
11:50 AM 42 °F - 38 °F 80% 29.54 in 31 mi South 21.9 mph - -   Mostly Cloudy
11:50 AM 41.0 °F 31.4 °F 37.4 °F 87% 29.53 in 6.2 mi South 21.9 mph - N/A   Mostly Cloudy
12:20 PM 41.0 °F 32.5 °F 37.4 °F 87% 29.53 in 6.2 mi South 17.3 mph - N/A   Mostly Cloudy
12:50 PM 41.0 °F 31.9 °F 37.4 °F 87% 29.50 in 6.2 mi South 19.6 mph - N/A   Mostly Cloudy
1:20 PM 41.0 °F 31.9 °F 37.4 °F 87% 29.47 in 6.2 mi South 19.6 mph - N/A   Mostly Cloudy
1:50 PM 41.0 °F 31.6 °F 35.6 °F 81% 29.47 in 6.2 mi South 20.7 mph - N/A   Scattered Clouds
2:20 PM 41.0 °F 31.6 °F 35.6 °F 81% 29.44 in 6.2 mi South 20.7 mph - N/A   Scattered Clouds
2:50 PM 42 °F - 38 °F 79% 29.41 in 16 mi South 21.9 mph - -   Scattered Clouds
2:50 PM 41.0 °F 30.9 °F 35.6 °F 81% 29.42 in 6.2 mi South 24.2 mph - N/A   Scattered Clouds
3:20 PM 41.0 °F 30.7 °F 35.6 °F 81% 29.39 in 6.2 mi South 25.3 mph - N/A   Scattered Clouds
3:50 PM 41.0 °F 30.7 °F 35.6 °F 81% 29.39 in 6.2 mi SSE 25.3 mph - N/A   Scattered Clouds
4:20 PM 39.2 °F 28.0 °F 35.6 °F 87% 29.36 in 6.2 mi South 26.5 mph - N/A   Scattered Clouds
4:50 PM 41.0 °F 30.9 °F 35.6 °F 81% 29.36 in 6.2 mi South 24.2 mph - N/A   Partly Cloudy
5:20 PM 42.8 °F 34.5 °F 37.4 °F 81% 29.36 in 6.2 mi SSE 18.4 mph - N/A   Partly Cloudy
5:50 PM 41 °F - 37 °F 80% 29.34 in 28 mi SE 21.9 mph - -   Scattered Clouds
5:50 PM 41.0 °F 31.4 °F 35.6 °F 81% 29.33 in 6.2 mi SSE 21.9 mph - N/A   Partly Cloudy
6:20 PM 39.2 °F 29.6 °F 33.8 °F 81% 29.33 in 6.2 mi SSE 19.6 mph - N/A   Partly Cloudy
6:50 PM 37.4 °F 27.5 °F 33.8 °F 87% 29.33 in 6.2 mi SSE 18.4 mph - N/A   Partly Cloudy
7:20 PM 42.8 °F 34.8 °F 37.4 °F 81% 29.30 in 6.2 mi SSE 17.3 mph - N/A Rain Light Rain
7:50 PM 42.8 °F 35.1 °F 37.4 °F 81% 29.30 in 6.2 mi SE 16.1 mph - N/A   Mostly Cloudy
8:20 PM 41.0 °F 33.1 °F 35.6 °F 81% 29.27 in 6.2 mi SSE 15.0 mph - N/A   Mostly Cloudy
8:50 PM 41 °F - 37 °F 81% 29.27 in 31 mi SSE 13.8 mph - -   Partly Cloudy
8:50 PM 41.0 °F 33.5 °F 35.6 °F 81% 29.27 in 6.2 mi SSE 13.8 mph - N/A   Mostly Cloudy
9:20 PM 41.0 °F 33.5 °F 35.6 °F 81% 29.27 in 6.2 mi South 13.8 mph - N/A   Mostly Cloudy
9:50 PM 39.2 °F 31.2 °F 35.6 °F 87% 29.27 in 6.2 mi SSE 13.8 mph - N/A   Scattered Clouds
10:20 PM 41.0 °F 33.5 °F 37.4 °F 87% 29.27 in 6.2 mi South 13.8 mph - N/A   Light Drizzle
10:50 PM 42.8 °F 35.4 °F 39.2 °F 87% 29.27 in 6.2 mi South 15.0 mph - N/A   Light Drizzle
11:20 PM 41.0 °F 35.2 °F 37.4 °F 87% 29.27 in 6.2 mi SSW 9.2 mph - N/A   Light Drizzle
11:50 PM 41 °F - 39 °F 89% 29.26 in 19 mi WSW 12.7 mph - - Rain Light Rain
11:50 PM 39.2 °F 33.6 °F 35.6 °F 87% 29.27 in 6.2 mi WSW 8.1 mph - N/A   Light Drizzle